Regional Weather Roundup
Issued by NWS

Home | Current Version | Previous Version | Graphics & Text | Print | Product List | Glossary On
Versions: 1 2 3 4 5 6 7 8 9 10 11 12 13 14 15 16 17 18 19 20 21 22 23 24 25 26 27 28 29 30 31 32 33 34 35 36 37 38 39 40 41 42 43 44 45 46 47 48 49 50
000
ASUS43 KLOT 041800
RWRIL

ILLINOIS REGIONAL WEATHER ROUNDUP
NATIONAL WEATHER SERVICE CHICAGO/ROMEOVILLE IL
100 PM CDT SAT JUL 04 2015

NOTE: "FAIR" INDICATES FEW OR NO CLOUDS BELOW 12,000 FEET WITH NO
SIGNIFICANT WEATHER AND/OR OBSTRUCTIONS TO VISIBILITY.

* THESE STATIONS ARE NOT UNDER NWS QUALITY CONTROL. THEY ALSO MAY NOT
  REPORT WEATHER SUCH AS PRECIPITATION OR FOG.

ILZ001-002-007-009-015-016-024-041900-
NORTHWEST ILLINOIS

CITY           SKY/WX    TMP DP  RH WIND       PRES   REMARKS
MOLINE         SUNNY     78  59  51 CALM      30.01F
6HR MIN TEMP:  59; 6HR MAX TEMP:  79;

STERLING*      SUNNY     81  61  50 SW3       30.02S HX  81
$$

ILZ003-004-008-010-011-017-018-041900-
NORTH CENTRAL ILLINOIS

CITY           SKY/WX    TMP DP  RH WIND       PRES   REMARKS
ROCKFORD       MOSUNNY   80  60  50 CALM      30.02F HX  81
6HR MIN TEMP:  59; 6HR MAX TEMP:  80;

$$

ILZ005-006-012>014-019>023-041900-
NORTHEAST ILLINOIS

CITY           SKY/WX    TMP DP  RH WIND       PRES   REMARKS
CHICAGO-OHARE  MOSUNNY   79  56  45 W7        30.00F HX  80
6HR MIN TEMP:  63; 6HR MAX TEMP:  80;

CHICAGO-MIDWAY MOSUNNY   80  55  42 S3        30.00F HX  80
6HR MIN TEMP:  65; 6HR MAX TEMP:  81;

AURORA         SUNNY     79  57  46 W6        30.02F HX  80
6HR MIN TEMP:  60; 6HR MAX TEMP:  79;

WAUKEGAN       SUNNY     76  61  59 E8        30.00S
6HR MIN TEMP:  61; 6HR MAX TEMP:  77;

DUPAGE AIRPORT SUNNY     78  56  46 W8        30.01S
6HR MIN TEMP:  60; 6HR MAX TEMP:  78;

WHEELING       SUNNY     80  56  43 N5        30.01F HX  80
6HR MIN TEMP:  62; 6HR MAX TEMP:  80;

NORTHERLY ISL    N/A     70  58  65 E6          N/A
$$

LMZ740>746-041900-
SOUTHERN LAKE MICHIGAN

STATION/POSITION SKY/WX   TEMP    WIND        PRES    VSBY  WAVE
                          AIR SEA DIR/SP/G                  HT/PER
                          (F)     (DEG/KT/KT) (MB)    (MI)  (FT/S)
HARRISON CRIB              67      90/  7/  8   N/A
BURNHAM HARBOR             70      70/  3/  5   N/A
CALUMET HARBOR             70      50/  8/  9   N/A
BURNS HARBOR               69     350/  3/  4 1017.3R
MICHIGAN CITY              70     260/  4/  5   N/A
MICHIGAN CITY 6N           69 66  280/  2/  4   N/A           0
ST. JOSEPH                 65 65                N/A           0
$$

ILZ025>027-034>036-040-047-049-050-058-095>099-041900-
WEST-CENTRAL ILLINOIS

CITY           SKY/WX    TMP DP  RH WIND       PRES   REMARKS
QUINCY         MOSUNNY   79  61  53 W7        30.02F HX  80
$$

ILZ028>032-037-038-041>044-048-051>054-059>061-041900-
CENTRAL ILLINOIS

CITY           SKY/WX    TMP DP  RH WIND       PRES   REMARKS
DECATUR        PTSUNNY   77  59  53 S6        30.03F
PEORIA         SUNNY     81  60  48 VRB6      30.03S HX  82
6HR MIN TEMP:  64; 6HR MAX TEMP:  81;

SPRINGFIELD    PTSUNNY   80  62  54 VRB3      30.03F HX  81
6HR MIN TEMP:  63; 6HR MAX TEMP:  80;

TAYLORVILLE    NOT AVBL
$$

ILZ033-039-045-046-055>057-062-063-041900-
EAST-CENTRAL ILLINOIS

CITY           SKY/WX    TMP DP  RH WIND       PRES   REMARKS
CHAMPAIGN      PTSUNNY   77  60  55 SW3       30.04S
MATTOON        MOSUNNY   77  61  57 CALM      30.02F
$$

ILZ079-100>102-041900-
SOUTHWEST ILLINOIS

CITY           SKY/WX    TMP DP  RH WIND       PRES   REMARKS
BELLEVILLE     MOSUNNY   80  65  61 N6        30.01F HX  82
CAHOKIA*       PTSUNNY   82  62  50 NE5       30.02S HX  83
$$

ILZ064>066-069>071-074>076-080>082-084>086-088>090-092>094-041900-
SOUTH-CENTRAL ILLINOIS

CITY           SKY/WX    TMP DP  RH WIND       PRES   REMARKS
CARBONDALE     MOSUNNY   80  65  59 NE6       30.01F HX  82
6HR MIN TEMP:  70; 6HR MAX TEMP:  81;

MARION         MOSUNNY   79  66  65 NW6       30.02F HX  81
MT. VERNON     MOSUNNY   79  63  57 E5        30.03S HX  80
$$

ILZ067-068-072-073-078-083-087-091-041900-
SOUTHEAST ILLINOIS

CITY           SKY/WX    TMP DP  RH WIND       PRES   REMARKS
LAWRENCEVILLE  PTSUNNY   79  66  64 N3        30.02F HX  81
$$

ABBREVIATIONS USED IN REMARKS
   TC - TEMPERATURE IN CELSIUS
  WCI - WIND CHILL INDEX
   HX - HEAT INDEX
  VSB - VISIBILITY
$$




USA.gov is the U.S. government's official web portal to all federal, state and local government web resources and services.